This demonstration page uses our WeatherBlox Daily Observations layout. Learn more.

Left ArrowRight Arrow

Hourly Observations for April 6, 2020

Temp ( °F °C ) Dew Point ( °F °C ) Humidity (%) Winds ( mph kmh ) Pressure ( in mb ) Visibility ( mi km ) Precip ( " mm )
12:53 am 00:53 Cloudy 46 7.8 40 4.4 79 79 N 5 7 29.73 1007 10 16 0.00 0.00
1:53 am 01:53 Cloudy 45 7.2 40 4.4 83 83 NNE 6 9 29.74 1007 10 16 0.00 0.00
2:53 am 02:53 Cloudy with Light Rain 45 7.2 42 5.6 90 90 N 3 6 29.75 1007 6 10 0.01 0.25
3:22 am 03:22 Cloudy with Light Rain 45 7.2 42 5.6 90 90 N 3 6 29.77 1008 6 10 0.03 0.76
3:31 am 03:31 Cloudy with Rain 45 7.2 42 5.6 90 90 VRB 3 6 29.78 1009 5 8 0.04 1.02
3:51 am 03:51 Cloudy with Light Rain 46 8 41 5 82 82 WSW 3 6 29.78 1009 8 13 0.06 1.52
3:53 am 03:53 Cloudy with Light Rain 45 7.2 41 5 86 86 WSW 3 6 29.76 1008 8 13 0.06 1.52
4:53 am 04:53 Cloudy with Light Rain 45 7.2 42 5.6 90 90 ENE 3 6 29.78 1009 10 16 0.01 0.25
5:26 am 05:26 Cloudy with Light Rain 45 7.2 43 6.1 93 93 ENE 3 6 29.80 1009 8 13 0.02 0.51
5:53 am 05:53 Cloudy with Light Rain 45 7.2 42 5.6 90 90 ENE 3 6 29.80 1009 10 16 0.04 1.02
6:44 am 06:44 Cloudy 45 7.2 42 5.6 90 90 Calm 29.83 1010 10 16 0.01 0.25
6:53 am 06:53 Cloudy 45 7.2 42 5.6 90 90 Calm 29.83 1010 10 16 0.01 0.25
7:01 am 07:01 Cloudy 45 7.2 43 6.1 93 93 NNW 3 6 29.84 1011 10 16 0.00 0.00
7:53 am 07:53 Cloudy 45 7.2 43 6.1 93 93 N 3 6 29.86 1011 10 16 0.00 0.00
8:53 am 08:53 Cloudy 46 7.8 42 5.6 86 86 NNE 5 7 29.88 1012 10 16 0.00 0.00
9:53 am 09:53 Cloudy with Rain 46 7.8 43 6.1 89 89 NW 5 7 29.89 1012 10 16 0.03 0.76
10:53 am 10:53 Cloudy 48 8.9 42 5.6 80 80 N 5 7 29.92 1013 10 16 0.02 0.51
10:55 am 10:55 Cloudy 49 9.4 42 5.6 77 77 N 5 7 29.93 1013 10 16 0.00 0.00
11:11 am 11:11 Mostly Cloudy 50 10 42 5.6 74 74 Calm 29.94 1014 10 16 0.00 0.00
11:53 am 11:53 Mostly Cloudy 51 10.6 42 5.6 71 71 WNW 6 9 29.93 1014 10 16 0.00 0.00
12:53 pm 12:53 Mostly Cloudy 55 12.8 41 5 59 59 VRB 5 7 29.91 1013 10 16 0.00 0.00
1:53 pm 13:53 Partly Cloudy 57 13.9 40 4.4 53 53 VRB 3 6 29.91 1013 10 16 0.00 0.00
2:53 pm 14:53 Partly Cloudy 59 15 40 4.4 49 49 Calm 29.89 1012 10 16 0.00 0.00
3:53 pm 15:53 Sunny 60 15.6 40 4.4 47 47 VRB 6 9 29.87 1011 10 16 0.00 0.00
4:53 pm 16:53 Sunny 61 16.1 40 4.4 46 46 SSW 3 6 29.86 1011 10 16 0.00 0.00
5:53 pm 17:53 Sunny 62 16.7 38 3.3 41 41 Calm 29.86 1011 10 16 0.00 0.00
6:53 pm 18:53 Sunny 62 16.7 38 3.3 41 41 W 6 9 29.85 1011 10 16 0.00 0.00
7:53 pm 19:53 Mostly Clear 57 13.9 43 6.1 60 60 SSW 3 6 29.87 1012 10 16 0.00 0.00
8:53 pm 20:53 Mostly Clear 55 12.8 43 6.1 64 64 Calm 29.91 1013 10 16 0.00 0.00
9:53 pm 21:53 Clear 52 11.1 42 5.6 69 69 SSE 5 7 29.96 1015 10 16 0.00 0.00
10:53 pm 22:53 Clear 49 9.4 42 5.6 77 77 S 5 7 29.98 1015 10 16 0.00 0.00
11:53 pm 23:53 Clear 50 10 43 6.1 77 77 S 6 9 30.01 1016 10 16 0.00 0.00

Powered by AerisWeather